User: anonymous
Location: Caltech
(34.1382°N, 118.1253°W)
Time: 17:14:43
(UTC-07:00)
Language:

Oscar 11 - Orbit

View from above orbital plane
View from above orbital plane
View from above satellite
View from above satellite

Ground track
Ground track

The orbit data is extracted from the following two-line orbital elements,

1 14781U 84021B   14106.77537124  .00001018  00000-0  13639-3 0  4657
2 14781 097.8580 168.0823 0008869 030.6532 329.5197 14.81497601618875
Epoch (UTC): 16 April 2014 18:36:32
Eccentricity: 0.0008869
inclination: 97.8580°
perigee height: 618 km
apogee height: 631 km
right ascension of ascending node: 168.0823°
argument of perigee: 30.6532°
revolutions per day: 14.81497601
mean anomaly at epoch: 329.5197°
orbit number at epoch: 61887

The dashed part of the orbit path shows where the satellite is in the earth's shadow,  

DLR